Location: *
(42.5628°N, 2.3633°E)
Time: 12:43:31
(UTC+00:00)

Okean 1-7 Rocket - Visible Passes

Search period start: 06 August 2020 00:00
Search period end: 16 August 2020 00:00
Orbit: 615 x 650 km, 82.5° (Epoch: 05 August)

Date Brightness Start Highest point End Pass type
(mag) Time Alt. Az. Time Alt. Az. Time Alt. Az.
06 Aug 4.8 02:07:27 10° N 02:11:34 38° ENE 02:14:15 19° SE visible
06 Aug 5.1 03:46:21 10° NW 03:49:25 19° W 03:51:38 13° WSW visible
07 Aug 3.6 02:28:53 10° N 02:33:18 80° E 02:35:04 36° SSE visible
08 Aug 6.1 01:13:48 10° NNE 01:16:29 16° ENE 01:18:34 12° E visible
08 Aug 3.8 02:50:40 10° NNW 02:54:55 48° W 02:55:58 40° SW visible
09 Aug 5.2 01:34:30 10° NNE 01:38:25 30° ENE 01:39:31 26° ESE visible
09 Aug 4.8 03:12:52 10° NW 03:16:24 24° W 03:16:55 23° W visible
10 Aug 3.9 01:55:48 10° N 02:00:12 61° E 02:00:31 59° ESE visible
10 Aug 5.6 03:36:08 10° WNW 03:37:46 12° W 03:37:55 12° W visible
11 Aug 6.3 00:41:23 10° NE 00:43:15 12° ENE 00:44:09 12° E visible
11 Aug 3.6 02:17:28 10° NNW 02:21:33 61° WNW 02:21:33 61° WNW visible
12 Aug 5.5 01:01:38 10° NNE 01:05:13 24° ENE 01:05:13 24° ENE visible
12 Aug 4.7 02:39:30 10° NNW 02:42:38 29° WNW 02:42:38 29° WNW visible
13 Aug 4.6 01:22:46 10° N 01:26:20 43° NE 01:26:20 43° NE visible
13 Aug 5.6 03:02:11 10° NW 03:03:45 14° WNW 03:03:45 14° WNW visible
14 Aug 4.4 01:44:19 10° N 01:47:28 46° NNW 01:47:28 46° NNW visible
15 Aug 5.9 00:28:50 10° NNE 00:31:14 18° ENE 00:31:14 18° ENE visible
15 Aug 5.0 02:06:12 10° NNW 02:08:39 28° NW 02:08:39 28° NW visible
